When you browse on this site, cookies collect data to enhance your experience and personalize the content and advertising you see.
Visit our Privacy Policy to learn more. By continuing to use the site, you agree to this use of cookies and data.
  • In Lithuania
  • List of Countries
  • For 7 days
  • Water Temperature
  • Satellite Maps
  • Weather Map
  • Weather Widgets
  • user-avatar
    Login

    Hourly Weather Buenos Aires

    Today, 14 December, Friday

    Time Temperature Precipitation Wind Pressure Humidity
    00:00 +22°C° 2.7 mm 6 mps 752 mmHg 91%
    01:00 +22°C° 2.7 mm 6 mps 752 mmHg 93%
    02:00 +22°C° 2.7 mm 5 mps 752 mmHg 94%
    03:00 +22°C° 1.8 mm 5 mps 752 mmHg 94%
    04:00 +22°C° 1.8 mm 4 mps 752 mmHg 95%
    05:00 +22°C° 1.8 mm 4 mps 752 mmHg 95%
    06:00 +22°C° 0.6 mm 3 mps 752 mmHg 94%
    07:00 +24°C° 0.6 mm 2 mps 752 mmHg 92%
    08:00 +24°C° 0.6 mm 1 mps 752 mmHg 90%
    09:00 +25°C° 0.2 mm 2 mps 753 mmHg 86%
    10:00 +26°C° 0.2 mm 2 mps 753 mmHg 82%
    11:00 +27°C° 0.2 mm 3 mps 754 mmHg 78%
    12:00 +28°C° 0.2 mm 4 mps 754 mmHg 72%
    13:00 +29°C° 0.2 mm 4 mps 754 mmHg 66%
    14:00 +30°C° 0.2 mm 5 mps 754 mmHg 60%
    15:00 +30°C° 0 mm 5 mps 754 mmHg 57%
    16:00 +30°C° 0 mm 5 mps 755 mmHg 54%
    17:00 +30°C° 0 mm 6 mps 755 mmHg 51%
    18:00 +28°C° 0 mm 5 mps 756 mmHg 51%
    19:00 +26°C° 0 mm 5 mps 757 mmHg 51%
    20:00 +25°C° 0 mm 5 mps 758 mmHg 51%
    21:00 +23°C° 0 mm 4 mps 758 mmHg 49%
    22:00 +22°C° 0 mm 4 mps 759 mmHg 47%
    23:00 +21°C° 0 mm 4 mps 759 mmHg 44%

    Tomorrow, 15 December, Saturday

    Time Temperature Precipitation Wind Pressure Humidity
    00:00 +20°C° 0 mm 4 mps 759 mmHg 45%
    01:00 +19°C° 0 mm 4 mps 760 mmHg 46%
    02:00 +18°C° 0 mm 4 mps 760 mmHg 47%
    03:00 +18°C° 0 mm 3 mps 760 mmHg 49%
    04:00 +17°C° 0 mm 3 mps 761 mmHg 52%
    05:00 +17°C° 0 mm 3 mps 761 mmHg 54%
    06:00 +19°C° 0 mm 3 mps 761 mmHg 50%
    07:00 +21°C° 0 mm 3 mps 762 mmHg 47%
    08:00 +24°C° 0 mm 2 mps 762 mmHg 43%
    09:00 +25°C° 0 mm 2 mps 762 mmHg 38%
    10:00 +27°C° 0 mm 2 mps 762 mmHg 33%
    11:00 +28°C° 0 mm 2 mps 762 mmHg 28%
    12:00 +29°C° 0 mm 2 mps 762 mmHg 28%
    13:00 +30°C° 0 mm 2 mps 761 mmHg 27%
    14:00 +30°C° 0 mm 2 mps 761 mmHg 27%
    15:00 +30°C° 0 mm 2 mps 761 mmHg 28%
    16:00 +29°C° 0 mm 2 mps 760 mmHg 30%
    17:00 +29°C° 0 mm 2 mps 760 mmHg 32%
    18:00 +27°C° 0 mm 3 mps 760 mmHg 35%
    19:00 +25°C° 0 mm 3 mps 760 mmHg 38%
    20:00 +24°C° 0 mm 3 mps 760 mmHg 41%
    21:00 +22°C° 0 mm 4 mps 760 mmHg 41%
    22:00 +22°C° 0 mm 4 mps 760 mmHg 42%
    23:00 +21°C° 0 mm 4 mps 761 mmHg 43%

    Day after tomorrow, 16 December, Sunday

    Time Temperature Precipitation Wind Pressure Humidity
    00:00 +21°C° 0 mm 4 mps 760 mmHg 46%
    01:00 +20°C° 0 mm 4 mps 760 mmHg 50%
    02:00 +20°C° 0 mm 4 mps 760 mmHg 53%
    03:00 +20°C° 0 mm 4 mps 760 mmHg 59%
    04:00 +19°C° 0 mm 4 mps 760 mmHg 65%
    05:00 +19°C° 0 mm 4 mps 760 mmHg 70%
    06:00 +21°C° 0 mm 4 mps 760 mmHg 66%
    07:00 +22°C° 0 mm 4 mps 760 mmHg 62%
    08:00 +25°C° 0 mm 4 mps 760 mmHg 58%
    09:00 +27°C° 0 mm 4 mps 759 mmHg 52%
    10:00 +29°C° 0 mm 4 mps 759 mmHg 46%
    11:00 +30°C° 0 mm 3 mps 758 mmHg 40%
    12:00 +31°C° 0 mm 3 mps 757 mmHg 37%
    13:00 +33°C° 0 mm 3 mps 757 mmHg 35%
    14:00 +34°C° 0 mm 3 mps 756 mmHg 32%
    15:00 +34°C° 0 mm 2 mps 756 mmHg 34%
    16:00 +34°C° 0 mm 2 mps 755 mmHg 35%
    17:00 +34°C° 0 mm 2 mps 755 mmHg 37%
    18:00 +31°C° 0 mm 2 mps 755 mmHg 43%
    19:00 +29°C° 0 mm 2 mps 755 mmHg 49%
    20:00 +27°C° 0 mm 2 mps 755 mmHg 55%
    21:00 +26°C° 0 mm 2 mps 755 mmHg 58%
    22:00 +26°C° 0 mm 1 mps 755 mmHg 62%
    23:00 +25°C° 0 mm 1 mps 756 mmHg 65%

    17 December, Monday

    Time Temperature Precipitation Wind Pressure Humidity
    00:00 +25°C° 0 mm 1 mps 756 mmHg 66%
    01:00 +24°C° 0 mm 1 mps 756 mmHg 67%
    02:00 +24°C° 0 mm 1 mps 756 mmHg 69%
    03:00 +22°C° 0 mm 4 mps 757 mmHg 69%
    04:00 +21°C° 0 mm 6 mps 757 mmHg 69%
    05:00 +19°C° 0 mm 9 mps 758 mmHg 69%
    06:00 +21°C° 0 mm 9 mps 759 mmHg 64%
    07:00 +21°C° 0 mm 9 mps 760 mmHg 59%
    08:00 +22°C° 0 mm 9 mps 761 mmHg 54%
    09:00 +23°C° 0 mm 8 mps 761 mmHg 51%
    10:00 +24°C° 0 mm 8 mps 761 mmHg 48%
    11:00 +26°C° 0 mm 8 mps 761 mmHg 45%
    12:00 +27°C° 0 mm 8 mps 761 mmHg 42%
    13:00 +27°C° 0 mm 8 mps 761 mmHg 39%
    14:00 +27°C° 0 mm 8 mps 761 mmHg 37%
    15:00 +26°C° 0 mm 8 mps 762 mmHg 38%
    16:00 +24°C° 0 mm 8 mps 762 mmHg 40%
    17:00 +23°C° 0 mm 8 mps 762 mmHg 42%
    18:00 +21°C° 0 mm 8 mps 762 mmHg 47%
    19:00 +20°C° 0 mm 7 mps 763 mmHg 52%
    20:00 +17°C° 0 mm 7 mps 763 mmHg 57%
    21:00 +17°C° 0 mm 7 mps 763 mmHg 61%
    22:00 +16°C° 0 mm 6 mps 763 mmHg 65%
    23:00 +16°C° 0 mm 6 mps 763 mmHg 69%

    18 December, Tuesday

    Time Temperature Precipitation Wind Pressure Humidity
    00:00 +15°C° 0 mm 6 mps 763 mmHg 71%
    01:00 +15°C° 0 mm 5 mps 764 mmHg 73%
    02:00 +14°C° 0 mm 5 mps 764 mmHg 75%
    03:00 +14°C° 0 mm 5 mps 764 mmHg 76%
    04:00 +14°C° 0 mm 4 mps 764 mmHg 78%
    05:00 +14°C° 0 mm 4 mps 764 mmHg 79%
    06:00 +17°C° 0 mm 4 mps 764 mmHg 72%
    07:00 +19°C° 0 mm 4 mps 764 mmHg 66%
    08:00 +21°C° 0 mm 5 mps 764 mmHg 60%
    09:00 +22°C° 0 mm 4 mps 763 mmHg 54%
    10:00 +23°C° 0 mm 4 mps 763 mmHg 49%
    11:00 +26°C° 0 mm 4 mps 763 mmHg 44%
    12:00 +27°C° 0 mm 4 mps 762 mmHg 41%
    13:00 +27°C° 0 mm 4 mps 761 mmHg 39%
    14:00 +28°C° 0 mm 4 mps 761 mmHg 37%
    15:00 +28°C° 0 mm 4 mps 760 mmHg 38%
    16:00 +27°C° 0 mm 4 mps 760 mmHg 39%
    17:00 +27°C° 0 mm 4 mps 759 mmHg 40%
    18:00 +25°C° 0 mm 4 mps 759 mmHg 48%
    19:00 +22°C° 0 mm 4 mps 759 mmHg 57%
    20:00 +21°C° 0 mm 4 mps 759 mmHg 65%
    21:00 +20°C° 0 mm 4 mps 759 mmHg 68%
    22:00 +20°C° 0 mm 4 mps 759 mmHg 72%
    23:00 +20°C° 0 mm 3 mps 759 mmHg 75%

    19 December, Wednesday

    Time Temperature Precipitation Wind Pressure Humidity
    00:00 +20°C° 0 mm 4 mps 758 mmHg 77%
    01:00 +20°C° 0 mm 4 mps 758 mmHg 80%
    02:00 +20°C° 0 mm 4 mps 757 mmHg 82%
    03:00 +20°C° 0 mm 4 mps 757 mmHg 84%
    04:00 +19°C° 0 mm 5 mps 757 mmHg 86%
    05:00 +19°C° 0 mm 5 mps 757 mmHg 89%
    06:00 +21°C° 0 mm 5 mps 757 mmHg 82%
    07:00 +22°C° 0 mm 4 mps 757 mmHg 76%
    08:00 +25°C° 0 mm 4 mps 757 mmHg 69%
    09:00 +27°C° 0 mm 4 mps 756 mmHg 63%
    10:00 +29°C° 0 mm 4 mps 755 mmHg 56%
    11:00 +30°C° 0 mm 3 mps 755 mmHg 49%
    12:00 +33°C° 0 mm 3 mps 754 mmHg 46%
    13:00 +34°C° 0 mm 3 mps 753 mmHg 43%
    14:00 +35°C° 0 mm 3 mps 753 mmHg 40%
    15:00 +34°C° 0 mm 3 mps 752 mmHg 43%
    16:00 +34°C° 0 mm 3 mps 752 mmHg 46%
    17:00 +34°C° 0 mm 4 mps 751 mmHg 48%
    18:00 +32°C° 0 mm 4 mps 751 mmHg 56%
    19:00 +29°C° 0 mm 4 mps 752 mmHg 63%
    20:00 +28°C° 0 mm 4 mps 752 mmHg 71%
    21:00 +27°C° 1.9 mm 3 mps 752 mmHg 76%
    22:00 +26°C° 1.9 mm 3 mps 753 mmHg 82%
    23:00 +25°C° 1.9 mm 3 mps 753 mmHg 87%
    Show more